STARLINK-1131, 45047

Orbit data source: Space-Track

STARLINK-1131, 45047 is a payload satellite owned by SpaceX/Seattle (US) in LEO that was launched on Wed, 29 Jan 2020 UTC via an FALCON 9 launch vehicle from the Air Force Eastern Test Range (AFETR). Payload-class satellites include a variety of spacecraft equipped with specific instruments for various scientific and technological missions. These include communications satellites like Starlink; space stations such as the ISS; scientific satellites like the Hubble; Earth observation satellites from companies like Planet Labs, Umbra, and HawkEye 360; GPS; miniature CubeSats for education and research; and military/defense satellites.

Loading next visibility...
Identifier
45047, 2020-006D
Orbit
LEO
Country
Flag of USUS
Related business
Manufacturer
SpaceX/Seattle
Mission
Operational Commercial Communications
Bus & Motor
STARLINK, Unknown motor
Mass
260 kg wet, ~248 kg dry
Launch date (UTC)
2020-01-29 (6 years ago)
Launch vehicle
FALCON 9
Launch site
Air Force Eastern Test Range (AFETR)
Object type
Payload
Rocket body
Debris
Shape & HBR
Box + 1 Pan, 10.1 m
Radar Cross Section
13.562 m², Large (>1 m²)

Expand to show TLE details & history
Last TLE update: 9 hours ago

TLE from 9 hours ago
0 STARLINK-1131
1 45047U 20006D   25354.54394598  .00000406  00000-0  46146-4 0  9999
2 45047  53.0540 282.4578 0001431 101.8173 258.2976 15.06391035324523
Epoch: 2025-12-20T13:03Z
TLE epoch observation values (Epoch: 2025-12-20T13:03:16.932Z)
Latitude
-0.00007°
Longitude
-2.73203°
Altitude
548.319 km
Speed
7.589 km/s
True Right ascension
18h 49m 49s
True Declination
0° 00' 00"
Sunlit
Object was in daylight at epoch
Visualization orbit readout
Latitude
Unknown
Longitude
Unknown
Altitude
Unknown
Speed
Unknown
Apparent Right ascension
Unknown
Apparent Declination
Unknown
Sunlit
N/A
Visualization observer readout
Local Sidereal Time
20:41:02
Azimuth
Unknown
Elevation
Unknown
Doppler factor
Unknown
Orbital elements
Apogee altitude
548.501 km
Perigee altitude
546.519 km
Semi-major axis
6,925.647 km
Eccentricity
0.00014
Inclination
53.054°
RAAN
282.4578°
Arg. of periapsis
101.8173°
True anomaly
258.28154°
Mean anomaly
258.2976°
Eccentric anomaly
258.28957°
Mean motion
3.76576 °/min
Orbital period
95.6 mins
BSTAR
0.000046146
Loading maneuver chart data...
Computing Atmospheric mass density...

Documentation

Showing up to 5 results
|